Location: ??? ????
(38.0580°N, 23.1536°E)
Time: 14:58:50
(UTC+00:00)

SMAP - Pass Details

Date: 13 December 2025
Orbit: 681 x 683 km, 98.1° (Epoch: 17 January)

Event Time Altitude Azimuth Distance (km) Brightness Sun altitude
Rises 15:31:46 0° 153° (SSE) 3,031 6.4 -4.9°
Reaches altitude 10° 15:34:02 10° 148° (SSE) 2,120 5.6 -5.3°
Maximum altitude 15:38:31 51° 73° (ENE) 856 3.2 -6.1°
Drops below altitude 10° 15:43:03 10° 358° (N) 2,134 5.4 -7.0°
Sets 15:45:20 0° 354° (N) 3,053 6.2 -7.4°
